Liberal, KS

3:47 AM CDT on July 25, 2017 (GMT -0500)
Liberal Municipal

Weather History for KLBL - March, 2013

Change the Weather History Date:

Sunday, March 17, 2013

  Actual Average Record
Temperature  
Mean Temperature 40 °F -  
Max Temperature 55 °F 61 °F 87 °F (2012)
Min Temperature 26 °F 32 °F 17 °F (1958)
Degree Days  
Heating Degree Days 24    
Moisture  
Dew Point 27 °F    
Average Humidity 60    
Maximum Humidity 75    
Minimum Humidity 44    
Precipitation  
Precipitation 0.00 in - - ()
Sea Level Pressure  
Sea Level Pressure 29.79 in    
Wind  
Wind Speed 10 mph (East)    
Max Wind Speed 24 mph    
Max Gust Speed 29 mph    
Visibility 10 miles    
Events      
Averages and records for this station are not official NWS values.
T = Trace of Precipitation, MM = Missing Value Source: NWS Daily Summary

Daily Weather History Graph

Daily Weather History Graph

Search for Another Location

Airport or City:

Trip Planner

Search our weather history database for the weather conditions in past years. The results will help you decide how hot, cold, wet, or windy it might be!

Date:

Astronomy

Mar. 17, 2013 Rise Set
Actual Time 7:51 AM CDT 7:53 PM CDT
Civil Twilight 7:25 AM CDT 8:19 PM CDT
Nautical Twilight 6:55 AM CDT 8:49 PM CDT
Astronomical Twilight 6:24 AM CDT 9:20 PM CDT
Moon 11:13 AM CDT (3/17) 12:55 AM CDT (3/17)
Length of Visible Light 12h 53m
Length of Day
12h 01m
Waxing Crescent, 31% of the Moon is Illuminated
Mar 17
Waxing Crescent
Mar 19
First Quarter
Mar 27
Full
Apr 2
Last Quarter
Apr 10
New

Hourly Weather History & Observations

Time (CDT) Temp. Windchill Dew Point Humidity Pressure Visibility Wind Dir Wind Speed Gust Speed Precip Events Conditions
12:15 AM 35.6 °F 25.5 °F 19.4 °F 52% 29.97 in 10.0 mi NE 17.3 mph - N/A   Overcast
12:35 AM 35.6 °F 27.1 °F 19.4 °F 52% 29.96 in 10.0 mi ENE 12.7 mph - N/A   Scattered Clouds
12:55 AM 33.8 °F 28.6 °F 19.4 °F 56% 29.95 in 10.0 mi ENE 5.8 mph - N/A   Clear
1:15 AM 33.8 °F 26.4 °F 21.2 °F 60% 29.96 in 10.0 mi ENE 9.2 mph - N/A   Clear
1:35 AM 33.8 °F 27.0 °F 21.2 °F 60% 29.96 in 10.0 mi NE 8.1 mph - N/A   Clear
1:55 AM 33.8 °F 24.8 °F 19.4 °F 56% 29.93 in 10.0 mi ENE 12.7 mph - N/A   Clear
2:15 AM 32.0 °F 23.6 °F 21.2 °F 64% 29.94 in 10.0 mi NE 10.4 mph - N/A   Clear
2:35 AM 32.0 °F 25.6 °F 21.2 °F 64% 29.95 in 10.0 mi North 6.9 mph - N/A   Partly Cloudy
2:55 AM 32.0 °F 24.2 °F 21.2 °F 64% 29.95 in 10.0 mi NNE 9.2 mph - N/A   Scattered Clouds
3:15 AM 30.2 °F 21.9 °F 21.2 °F 69% 29.95 in 10.0 mi NNE 9.2 mph - N/A   Partly Cloudy
3:35 AM 30.2 °F 21.9 °F 21.2 °F 69% 29.94 in 10.0 mi NNE 9.2 mph - N/A   Clear
3:55 AM 30.2 °F 23.4 °F 21.2 °F 69% 29.95 in 10.0 mi NNE 6.9 mph - N/A   Scattered Clouds
4:15 AM 30.2 °F 22.6 °F 21.2 °F 69% 29.93 in 10.0 mi NE 8.1 mph - N/A   Overcast
4:55 AM 32.0 °F 25.6 °F 21.2 °F 64% 29.91 in 10.0 mi NE 6.9 mph - N/A   Overcast
5:15 AM 32.0 °F 25.6 °F 21.2 °F 64% 29.91 in 10.0 mi NNE 6.9 mph - N/A   Overcast
5:35 AM 30.2 °F 22.6 °F 21.2 °F 69% 29.90 in 10.0 mi NNE 8.1 mph - N/A   Mostly Cloudy
5:55 AM 30.2 °F 22.6 °F 21.2 °F 69% 29.92 in 10.0 mi NNE 8.1 mph - N/A   Scattered Clouds
6:15 AM 30.2 °F 23.4 °F 21.2 °F 69% 29.91 in 10.0 mi NNE 6.9 mph - N/A   Clear
6:35 AM 30.2 °F - 21.2 °F 69% 29.91 in 10.0 mi North - - N/A   Clear
6:55 AM 28.4 °F 20.4 °F 19.4 °F 69% 29.92 in 10.0 mi North 8.1 mph - N/A   Clear
7:15 AM 26.6 °F 17.5 °F 19.4 °F 74% 29.90 in 10.0 mi NNE 9.2 mph - N/A   Clear
7:35 AM 28.4 °F 21.2 °F 21.2 °F 74% 29.90 in 10.0 mi NNE 6.9 mph - N/A   Clear
7:55 AM 26.6 °F 21.2 °F 19.4 °F 74% 29.91 in 10.0 mi NNW 4.6 mph - N/A   Clear
8:15 AM 28.4 °F 23.3 °F 19.4 °F 69% 29.89 in 10.0 mi ENE 4.6 mph - N/A   Clear
8:35 AM 28.4 °F 23.3 °F 21.2 °F 74% 29.90 in 10.0 mi NNE 4.6 mph - N/A   Partly Cloudy
8:55 AM 30.2 °F 24.3 °F 21.2 °F 69% 29.89 in 10.0 mi NE 5.8 mph - N/A   Scattered Clouds
9:15 AM 30.2 °F 25.4 °F 23.0 °F 75% 29.90 in 10.0 mi NE 4.6 mph - N/A   Overcast
9:35 AM 30.2 °F - 23.0 °F 75% 29.90 in 10.0 mi Calm Calm - N/A   Scattered Clouds
9:55 AM 33.8 °F - 24.8 °F 70% 29.90 in 10.0 mi Calm Calm - N/A   Clear
10:15 AM 33.8 °F 30.8 °F 24.8 °F 70% 29.90 in 10.0 mi NNE 3.5 mph - N/A   Clear
10:35 AM 33.8 °F - 24.8 °F 70% 29.90 in 10.0 mi Calm Calm - N/A   Clear
10:55 AM 35.6 °F 30.7 °F 24.8 °F 65% 29.89 in 10.0 mi ESE 5.8 mph - N/A   Clear
11:15 AM 35.6 °F - 26.6 °F 70% 29.88 in 10.0 mi Calm Calm - N/A   Clear
11:35 AM 37.4 °F - 26.6 °F 65% 29.88 in 10.0 mi Calm Calm - N/A   Partly Cloudy
11:55 AM 39.2 °F 35.0 °F 26.6 °F 61% 29.86 in 10.0 mi SSE 5.8 mph - N/A   Mostly Cloudy
12:15 PM 39.2 °F 34.2 °F 28.4 °F 65% 29.84 in 10.0 mi ESE 6.9 mph - N/A   Overcast
12:35 PM 42.8 °F 38.0 °F 30.2 °F 61% 29.83 in 10.0 mi SSE 8.1 mph 16.1 mph N/A   Overcast
12:55 PM 42.8 °F 37.0 °F 28.4 °F 57% 29.81 in 10.0 mi SE 10.4 mph 18.4 mph N/A   Overcast
1:15 PM 44.6 °F 38.4 °F 30.2 °F 57% 29.80 in 10.0 mi SE 12.7 mph - N/A   Scattered Clouds
1:35 PM 44.6 °F 39.2 °F 30.2 °F 57% 29.78 in 10.0 mi SSE 10.4 mph 17.3 mph N/A   Clear
1:55 PM 46.4 °F 40.7 °F 32.0 °F 57% 29.77 in 10.0 mi SSE 12.7 mph 19.6 mph N/A   Clear
2:15 PM 48.2 °F - 32.0 °F 54% 29.76 in 10.0 mi SSE 11.5 mph 19.6 mph N/A   Clear
2:35 PM 48.2 °F - 32.0 °F 54% 29.73 in 10.0 mi South 12.7 mph 19.6 mph N/A   Clear
2:55 PM 51.8 °F - 32.0 °F 47% 29.70 in 10.0 mi SSE 12.7 mph - N/A   Clear
3:15 PM 51.8 °F - 33.8 °F 50% 29.69 in 10.0 mi SSE 13.8 mph 19.6 mph N/A   Clear
3:35 PM 53.6 °F - 33.8 °F 47% 29.66 in 10.0 mi SSE 13.8 mph 21.9 mph N/A   Clear
3:55 PM 53.6 °F - 33.8 °F 47% 29.64 in 10.0 mi SSE 12.7 mph 21.9 mph N/A   Clear
4:15 PM 55.4 °F - 33.8 °F 44% 29.62 in 10.0 mi SE 18.4 mph 28.8 mph N/A   Clear
4:35 PM 55.4 °F - 33.8 °F 44% 29.61 in 10.0 mi SSE 18.4 mph 27.6 mph N/A   Clear
4:55 PM 55.4 °F - 33.8 °F 44% 29.61 in 10.0 mi South 17.3 mph - N/A   Clear
5:15 PM 55.4 °F - 33.8 °F 44% 29.60 in 10.0 mi SSE 16.1 mph - N/A   Clear
5:35 PM 55.4 °F - 33.8 °F 44% 29.60 in 10.0 mi SSE 15.0 mph 18.4 mph N/A   Clear
5:55 PM 55.4 °F - 33.8 °F 44% 29.60 in 10.0 mi SSE 15.0 mph - N/A   Partly Cloudy
6:15 PM 55.4 °F - 33.8 °F 44% 29.64 in 10.0 mi NNE 9.2 mph - N/A   Mostly Cloudy
6:35 PM 55.4 °F - 33.8 °F 44% 29.64 in 10.0 mi ENE 12.7 mph - N/A   Overcast
6:55 PM 53.6 °F - 33.8 °F 47% 29.62 in 10.0 mi ESE 16.1 mph - N/A   Mostly Cloudy
7:15 PM 51.8 °F - 32.0 °F 47% 29.58 in 10.0 mi ESE 24.2 mph - N/A   Scattered Clouds
7:35 PM 51.8 °F - 33.8 °F 50% 29.58 in 10.0 mi ESE 19.6 mph 26.5 mph N/A   Clear
7:55 PM 50.0 °F - 32.0 °F 50% 29.60 in 10.0 mi East 15.0 mph - N/A   Clear
8:15 PM 48.2 °F - 32.0 °F 54% 29.60 in 10.0 mi ESE 15.0 mph - N/A   Clear
8:35 PM 48.2 °F - 30.2 °F 50% 29.60 in 10.0 mi ESE 15.0 mph - N/A   Clear
8:55 PM 46.4 °F 40.1 °F 30.2 °F 53% 29.60 in 10.0 mi ESE 15.0 mph - N/A   Clear
9:15 PM 46.4 °F 39.8 °F 30.2 °F 53% 29.60 in 10.0 mi ESE 16.1 mph - N/A   Clear
9:35 PM 46.4 °F 39.8 °F 30.2 °F 53% 29.60 in 10.0 mi ESE 16.1 mph 20.7 mph N/A   Clear
9:55 PM 46.4 °F 39.5 °F 32.0 °F 57% 29.60 in 10.0 mi SE 17.3 mph - N/A   Clear
10:15 PM 44.6 °F 37.4 °F 32.0 °F 61% 29.61 in 10.0 mi SE 16.1 mph - N/A   Clear
10:35 PM 44.6 °F 38.4 °F 32.0 °F 61% 29.63 in 10.0 mi SE 12.7 mph - N/A   Partly Cloudy
10:55 PM 44.6 °F 40.2 °F 32.0 °F 61% 29.64 in 10.0 mi SE 8.1 mph - N/A   Mostly Cloudy
11:15 PM 44.6 °F 38.4 °F 33.8 °F 66% 29.63 in 10.0 mi SSE 12.7 mph 21.9 mph N/A   Mostly Cloudy
11:35 PM 44.6 °F 40.2 °F 33.8 °F 66% 29.64 in 10.0 mi SSE 8.1 mph - N/A   Partly Cloudy
11:55 PM 44.6 °F - 33.8 °F 66% 29.66 in 10.0 mi Calm Calm - N/A   Partly Cloudy